DIAMANT R/B, 2671

Orbit data source: Space-Track

DIAMANT R/B, 2671 is space debris in LEO originally from a launch on Wed, 08 Feb 1967 UTC launched from the Hamma Guira Space Track Range (HGSTR). Debris objects in space refer to the collection of defunct objects orbiting the Earth. Examples of debris include non-operational satellites, rocket bodies, and fragments generated from explosions, collisions, or faulty payload assembly.

Loading next visibility...
Identifier
2671, 1967-011B
Orbit
LEO
Last TLE update
9 hours ago
Origin
Manufacturer
Sud
Mission
Spacecraft
Bus & Motor
RUBIS, Unknown motor
Mass
65 kg wet, 65 kg dry
Launch date (UTC)
1967-02-08 (58 years ago)
Launch vehicle
Unknown
Launch site
Hamma Guira Space Track Range (HGSTR)
Object type
Payload
Rocket body
Debris
Shape & HBR
Cyl, 2.1 m
Radar Cross Section
1.347 m², Large (>1 m²)

Expand to show TLE details & history

TLE from 9 hours ago
0 DIAMANT R/B
1 02671U 67011B   25128.86356963  .00000908  00000-0  19369-3 0  9993
2 02671  39.9488  56.0400 0339451 257.6154  98.6430 14.32933625997552
Epoch: 2025-05-08T20:43Z
Definitive object data (Epoch: 2025-05-08T20:43:32.416Z)
Latitude
0.00001°
Longitude
-121.77302°
Altitude
825.914 km
Speed
7.419 km/s
True Right ascension
03h 44m 09s
True Declination
0° 00' 00"
Sunlit
Object was in daylight at TLE epoch
Visualization TLE readout
Latitude
18.20698°
Longitude
-100.58915°
Altitude
929.106 km
Speed
7.314 km/s
Apparent Right ascension
03h 36m 51s
Apparent Declination
-9° 45' 28"
Sunlit
Object is in daylight
Visualization observer readout
Local Sidereal Time
13:22:17
Azimuth
305.986° NW
Elevation
-47.565°
Doppler factor
1
Orbital elements
Apogee altitude
1,027.427 km
Perigee altitude
541.168 km
Semi-major axis
7,162.435 km
Eccentricity
0.0339451
Inclination
39.9488°
RAAN
56.04°
Arg. of periapsis
257.6154°
True anomaly
102.46145°
Mean anomaly
98.643°
Eccentric anomaly
100.555°
Mean motion
3.58057 °/min
BSTAR
0.00019369
Orbital period
100.54 mins
Loading maneuver chart data...
Loading SW <> Apogee altitude chart data...

DIAMANT R/B Visibility forecast

Observer location: undefined°, undefined°

Span
Click to sort rows by Start time (UTC) header in descending order
Start Az.
Max El. time (UTC)
Max El. Az.
Max El.
End time (UTC)
End Az.
6 mins2025-05-09 05:41:39.474Z254.367° W2025-05-09 05:44:39.474Z224.231° SW16.431°2025-05-09 05:47:39.474Z191.155° SSW
10 mins2025-05-09 22:00:39.474Z209.4° SW2025-05-09 22:05:39.474Z140.246° SSE31.945°2025-05-09 22:10:39.474Z86.723° E
12 mins2025-05-09 23:45:39.474Z251.212° W2025-05-09 23:51:39.474Z125.104° SE44.059°2025-05-09 23:57:39.474Z82.02° E
11 mins2025-05-10 01:32:39.474Z273.773° WNW2025-05-10 01:37:39.474Z242.989° WSW44.982°2025-05-10 01:43:39.474Z96.533° ESE
11 mins2025-05-10 03:18:39.474Z276.426° WNW2025-05-10 03:23:39.474Z216.449° SW39.684°2025-05-10 03:29:39.474Z128.086° SE
7 mins2025-05-10 05:06:39.474Z251.123° W2025-05-10 05:09:39.474Z217.436° SW19.247°2025-05-10 05:13:39.474Z175.535° S
|